Location: Barnston
(51.8500°N, 0.4000°E)
Time: 05:15:57
(UTC+00:00)

Cosmos 494 Rocket - Pass Details

Date: 26 September 2023
Orbit: 741 x 768 km, 74.1° (Epoch: 29 November)

Event Time Altitude Azimuth Distance (km) Brightness Sun altitude
Rises 03:36:33 0° 335° (NNW) 3,219 7.3 -20.8°
Reaches altitude 10° 03:38:57 10° 338° (NNW) 2,286 6.5 -20.5°
Maximum altitude 03:44:07 71° 63° (ENE) 794 4.2 -19.7°
Drops below altitude 10° 03:49:13 10° 147° (SSE) 2,255 6.5 -19.0°
Sets 03:51:34 0° 150° (SSE) 3,172 7.3 -18.7°
